Tracking 29799 objects as of 11-Oct-2024
HD Live streaming from Space Station
objects crossing your sky now

STARLINK-30303

Track STARLINK-30303 now!
10-day predictions
STARLINK-30303 is classified as:


NORAD ID: 57677
Int'l Code: 2023-124Q
Perigee: 469.8 km
Apogee: 471.0 km
Inclination: 53.2 °
Period: 93.9 minutes
Semi major axis: 6841 km
RCS: Unknown
Launch date: August 22, 2023
Source: United States (US)
Launch site: AIR FORCE WESTERN TEST RANGE (AFWTR)
Your satellite tracking list
Your tracking list is empty




NASA's NSSDC Master Catalog

Two Line Element Set (TLE):
1 57677U 23124Q   24284.72485129 -.00002374  00000-0 -59528-4 0  9993
2 57677  53.1590  80.9619 0000923  79.8673 280.2433 15.34209029 64551
Source of the keplerian elements: AFSPC